TimeCST,TemperatureF,Dew PointF,Humidity,Sea Level PressureIn,VisibilityMPH,Wind Direction,Wind SpeedMPH,Gust SpeedMPH,PrecipitationIn,Events,Conditions,WindDirDegrees,DateUTC
12:13 AM,37.9,33.1,83,29.59,10.0,West,24.2,33.4,N/A,,Mostly Cloudy,260,2013-12-05 06:13:00
12:52 AM,37.0,32.0,82,29.63,10.0,West,20.7,29.9,N/A,,Overcast,270,2013-12-05 06:52:00
1:52 AM,36.0,30.9,82,29.68,10.0,West,21.9,35.7,N/A,,Overcast,260,2013-12-05 07:52:00
2:13 AM,36.0,28.0,73,29.67,10.0,West,20.7,33.4,N/A,,Overcast,260,2013-12-05 08:13:00
2:52 AM,35.1,28.0,76,29.69,10.0,West,12.7,20.7,N/A,,Overcast,270,2013-12-05 08:52:00
3:05 AM,35.1,28.9,78,29.69,10.0,WSW,15.0,19.6,N/A,,Overcast,250,2013-12-05 09:05:00
3:35 AM,34.0,27.0,75,29.72,10.0,West,17.3,33.4,N/A,,Overcast,260,2013-12-05 09:35:00
3:52 AM,34.0,27.0,75,29.73,10.0,West,15.0,26.5,N/A,,Overcast,270,2013-12-05 09:52:00
4:49 AM,32.0,24.8,75,29.75,10.0,West,20.7,27.6,N/A,,Overcast,260,2013-12-05 10:49:00
4:52 AM,32.0,24.1,73,29.77,10.0,WSW,20.7,32.2,N/A,,Overcast,250,2013-12-05 10:52:00
5:52 AM,30.9,23.0,72,29.80,10.0,West,16.1,33.4,N/A,,Mostly Cloudy,260,2013-12-05 11:52:00
6:52 AM,28.9,19.9,69,29.84,10.0,West,21.9,33.4,N/A,,Overcast,270,2013-12-05 12:52:00
7:52 AM,27.0,18.0,69,29.87,10.0,West,13.8,24.2,N/A,,Mostly Cloudy,260,2013-12-05 13:52:00
8:52 AM,26.1,15.1,63,29.93,10.0,West,15.0,24.2,N/A,,Mostly Cloudy,260,2013-12-05 14:52:00
9:52 AM,26.1,12.9,58,29.97,10.0,West,17.3,25.3,N/A,,Mostly Cloudy,280,2013-12-05 15:52:00
10:52 AM,26.1,12.9,58,29.98,10.0,West,18.4,25.3,N/A,,Scattered Clouds,280,2013-12-05 16:52:00
11:52 AM,27.0,12.0,53,29.99,10.0,West,13.8,21.9,N/A,,Scattered Clouds,270,2013-12-05 17:52:00
12:52 PM,27.0,12.0,53,30.01,10.0,WSW,17.3,-,N/A,,Mostly Cloudy,250,2013-12-05 18:52:00
1:52 PM,26.1,12.0,55,30.04,10.0,West,10.4,21.9,N/A,,Mostly Cloudy,260,2013-12-05 19:52:00
2:52 PM,26.1,10.9,53,30.06,10.0,West,13.8,-,N/A,,Mostly Cloudy,270,2013-12-05 20:52:00
3:52 PM,25.0,10.0,53,30.09,10.0,West,10.4,18.4,N/A,,Overcast,270,2013-12-05 21:52:00
4:52 PM,24.1,10.9,57,30.12,10.0,WSW,11.5,-,N/A,,Overcast,250,2013-12-05 22:52:00
5:52 PM,24.1,10.9,57,30.15,10.0,West,13.8,-,N/A,,Mostly Cloudy,270,2013-12-05 23:52:00
6:52 PM,23.0,10.0,58,30.19,10.0,West,16.1,21.9,N/A,,Overcast,270,2013-12-06 00:52:00
7:52 PM,21.9,10.0,60,30.19,10.0,West,16.1,26.5,N/A,,Overcast,280,2013-12-06 01:52:00
8:52 PM,21.0,9.0,60,30.21,10.0,West,13.8,-,N/A,,Mostly Cloudy,280,2013-12-06 02:52:00
9:52 PM,19.9,7.0,57,30.22,10.0,WNW,16.1,-,N/A,,Scattered Clouds,300,2013-12-06 03:52:00
10:52 PM,19.0,8.1,62,30.26,10.0,NW,11.5,-,N/A,,Partly Cloudy,310,2013-12-06 04:52:00
11:52 PM,18.0,7.0,62,30.27,10.0,NW,11.5,-,N/A,,Overcast,310,2013-12-06 05:52:00